Regional Weather Roundup
Issued by NWS

Home | Current Version | Previous Version | Text Only | Print | Product List | Glossary On
Versions: 1 2 3 4 5 6 7 8 9 10 11 12 13 14 15 16 17 18 19 20 21 22 23 24 25 26 27 28 29 30 31 32 33 34 35 36 37 38 39 40 41 42 43 44 45 46 47 48 49 50
000
ASUS43 KTOP 281808
RWRKS

WEATHER ROUNDUP FOR KANSAS
NATIONAL WEATHER SERVICE GOODLAND KS
100 PM CDT TUE JUL 28 2015

NOTE:  "FAIR" INDICATES FEW OR NO CLOUDS BELOW 12,000 FEET WITH NO
SIGNIFICANT WEATHER AND/OR OBSTRUCTIONS TO VISIBILITY.

KSZ001>006-013>018-027>032-041>047-281900-
NORTHWEST KANSAS

CITY           SKY/WX    TMP DP  RH WIND       PRES   REMARKS
GOODLAND       SUNNY     80  43  26 N20G28    30.07R
6HR MIN TEMP:  68; 6HR MAX TEMP:  81;

HAYS           SUNNY     90  70  51 N23       29.88R HX  95
HILL CITY      SUNNY     83  56  39 N26G33    29.96R
6HR MIN TEMP:  78; 6HR MAX TEMP:  84;

RUSSELL        SUNNY     91  70  49 W7        29.85R HX  96
6HR MIN TEMP:  77; 6HR MAX TEMP:  91;

$$

KSZ061>065-074>080-084>089-281900-
SOUTHWEST KANSAS

CITY           SKY/WX    TMP DP  RH WIND       PRES   REMARKS
DODGE CITY     SUNNY     88  66  48 N16G22    29.93R
6HR MIN TEMP:  73; 6HR MAX TEMP:  88;

ELKHART          N/A     85  51  31 N17         N/A
GARDEN CITY    SUNNY     84  62  47 N26G33    29.97R
6HR MIN TEMP:  75; 6HR MAX TEMP:  85;

GREAT BEND     SUNNY     93  68  43 W14       29.85S HX  97
LIBERAL        SUNNY     88  61  40 N17G24    29.97R
PRATT          SUNNY     93  63  36 S16       29.90R
$$

KSZ066>073-081>083-090>101-281900-
SOUTHEAST KANSAS

CITY           SKY/WX    TMP DP  RH WIND       PRES   REMARKS
CHANUTE        SUNNY     93  72  50 S16       29.93F HX 101
6HR MIN TEMP:  78; 6HR MAX TEMP:  93;

COFFEYVILLE    SUNNY     94  73  50 S13       29.93S HX 103
6HR MIN TEMP:  77; 6HR MAX TEMP:  94;

HUTCHINSON     SUNNY    100  67  33 S17G25    29.86R HX 105
6HR MIN TEMP:  78; 6HR MAX TEMP: 100;

MEDICINE LODGE   N/A     95  69  42 S14       29.86S HX 100
NEWTON         SUNNY     97  68  38 S17G25    29.90F HX 101
PARSONS        SUNNY     92  73  53 S15G21    29.94F HX 100
6HR MIN TEMP:  78; 6HR MAX TEMP:  92;

WICHITA INTL   MOSUNNY   96  69  41 S17G25    29.87F HX 102
6HR MIN TEMP:  77; 6HR MAX TEMP:  96;

WICHITA JABRA  SUNNY     95  69  42 S15G25    29.88F HX 100
6HR MIN TEMP:  79; 6HR MAX TEMP:  96;

WICHITA MCCONL SUNNY     94  71  47 S16       29.89S HX 101
WINFIELD       SUNNY     94  71  47 S18G26    29.90F HX 101
6HR MIN TEMP:  78; 6HR MAX TEMP:  95;

$$

KSZ007>012-019>026-033>040-048>060-102>105-281900-
NORTHEAST KANSAS

CITY           SKY/WX    TMP DP  RH WIND       PRES   REMARKS
CONCORDIA      SUNNY     92  70  48 MISG      29.84S HX  97
6HR MIN TEMP:  78; 6HR MAX TEMP:  93;

EMPORIA        SUNNY     97  69  40 S21       29.88F HX 103
6HR MIN TEMP:  76; 6HR MAX TEMP:  97;

LAWRENCE       SUNNY     94  73  50 S14       29.88F HX 103
6HR MIN TEMP:  77; 6HR MAX TEMP:  94;

MANHATTAN      SUNNY     96  72  45 S13G22    29.83F HX 104
6HR MIN TEMP:  80; 6HR MAX TEMP:  97;

MARYSVILLE     SUNNY     95  72  46 SW12      29.85S HX 103
OLATHE IND     SUNNY     93  71  48 S17G25    29.93S HX 100
6HR MIN TEMP:  78; 6HR MAX TEMP:  93;

OLATHE EXE     SUNNY     90  73  57 S16       29.92S HX  98
6HR MIN TEMP:  77; 6HR MAX TEMP:  91;

SALINA         SUNNY    100  68  35 SW14G21   29.83S HX 105
6HR MIN TEMP:  79; 6HR MAX TEMP: 100;

TOPEKA BILLARD SUNNY     93  72  50 S14G22    29.86F HX 101
6HR MIN TEMP:  79; 6HR MAX TEMP:  94;

TOPEKA FORBES  SUNNY     95  71  45 S16G24    29.87F HX 102
6HR MIN TEMP:  79; 6HR MAX TEMP:  95;

$$


USA.gov is the U.S. government's official web portal to all federal, state and local government web resources and services.